www.pogodaiklimat.ru
ПОГОДА в Ирбейском

Архив погоды в Ирбейском (Красноярский край, Россия)

Время
(UTC), дата
18 16.07
21 16.07
00 17.07
03 17.07
06 17.07
09 17.07
12 17.07
15 17.07
18 17.07
21 17.07
00 18.07
03 18.07
06 18.07
09 18.07
12 18.07
15 18.07
18 18.07
21 18.07
00 19.07
03 19.07
06 19.07
09 19.07
12 19.07
15 19.07
18 19.07
21 19.07
00 20.07
03 20.07
06 20.07
09 20.07
12 20.07
15 20.07
18 20.07
21 20.07
00 21.07
03 21.07
06 21.07
09 21.07
12 21.07
15 21.07
18 21.07
21 21.07
00 22.07
03 22.07
06 22.07
09 22.07
12 22.07
15 22.07
18 22.07
21 22.07
00 23.07
03 23.07
06 23.07
09 23.07
12 23.07
15 23.07
Ветер
(напр.,м/с)
Видим. Явления Облачность Т
(С)
Тd
(С)
f
(%)
Тe
(С)
Тes
(С)
Комфортность P
(гПа)
Po
(гПа)
Тmin
(С)
Tmax
(С)
R
(мм)
R24
(мм)
S
(см)
штиль 0 н/о 4/0
[Ci fib]
+14.1 +13.5 96 +14 +14 1007.2 977.7
штиль 0 20 км местами туман поземный 8/3 1000 м
[Sc Ci fib]
+12.2 +11.7 97 +12 +12 1006.9 977.2
штиль 0 2000 м дымка {туман} 9/4 1000 м
[Sc Ac lent Ci fib]
+16.1 +15.5 96 +16 +17 1006.6 977.4 +11.7
штиль 0 20 км 9/3 1000 м
[Sc Ac lent Ci fib]
+23.4 +16.7 66 +28 +34 душно 1005.6 977.1
В 1 20 км 9/4 600 м
[Cu med, cong Ac lent Ci sp]
+27.0 +15.6 50 +30 +36 душно 1004.4 976.3
СВ 2 20 км 6/3 600 м
[Cu med, cong Ac lent Ci sp]
+28.8 +14.9 43 +31 +36 жарко 1003.1 975.2
штиль 0 20 км 8/3 1000 м
[Sc Ac lent Ci sp]
+25.9 +17.5 60 +30 +31 душно 1002.5 974.3 +29.6
штиль 0 20 км 8/3 1000 м
[Sc Ac lent Ci sp]
+18.7 +17.5 93 +20 +20 1003.2 974.3
штиль 0 н/о местами туман поземный 4/0
[Ci sp]
+15.3 +14.8 97 +15 +15 1003.0 973.7
штиль 0 20 км местами туман поземный 8/3 1000 м
[Sc Ac lent Ci sp]
+13.3 +12.8 97 +13 +13 1002.1 972.7
штиль 0 20 км 9/4 1000 м
[Sc Ac lent Ci sp]
+19.0 +17.4 90 +20 +22 1001.2 972.4 +13.1
В 1 4000 м дым 9/0 2000 м
[Ac lent Ci sp]
+26.5 +18.1 60 +31 +39 душно 999.7 971.7
СВ 2 4000 м дым 9/3 600 м
[Cu med, cong Ci sp]
+29.0 +18.2 52 +34 +42 очень душно 998.8 971.1
С 2 4000 м дым 8/4 600 м
[Cb cap Ci sp]
+29.5 +17.4 48 +34 +38 очень душно 997.7 970.0
СВ 2 4000 м дым 9/6 600 м
[Cb cap Ac lent Ci sp]
+26.9 +18.8 61 +32 +32 очень душно 998.3 970.4 +29.9
штиль 0 20 км {ливн. дождь} 9/8 600 м
[Cb cap Ac lent]
+20.2 +18.5 90 +23 +23 комфорт 1000.1 971.5
штиль 0 н/о слаб. ливневой дождь 10/10 600 м
[Cb cap]
+19.1 +18.4 96 +21 +21 комфорт 1000.1 971.4
штиль 0 20 км {ливн. дождь} 10/10 600 м
[Cb cap]
+18.8 +18.3 97 +20 +20 999.2 970.5
штиль 0 20 км {ливн. дождь} 9/8 600 м
[Cb cap Ac lent]
+19.8 +19.3 97 +23 +23 комфорт 999.2 970.6 +18.7 5
ЮЗ 3 20 км 9/9 600 м
[Cb cap]
+22.0 +19.3 85 +27 +28 душно 999.0 970.6
ЮЗ 3 20 км {ливн. дождь} 8/8 600 м
[Cb cap Ac trans]
+23.9 +19.1 75 +29 +31 душно 998.6 970.4
З 3 20 км 6/6 600 м
[Cb cap]
+27.7 +17.6 54 +32 +35 очень душно 997.2 969.4
З 1 20 км 8/4 600 м
[Cb cap Ac trans Ci fib]
+27.2 +18.7 60 +32 +33 очень душно 997.6 969.7 +28.3 0.0
штиль 0 20 км 6/3 1000 м
[Sc Ac lent Ci fib]
+19.3 +18.6 96 +21 +21 комфорт 999.0 970.3
штиль 0 н/о местами туман поземный 3/1 1000 м
[Sc Ci fib]
+16.8 +16.2 96 +17 +17 999.5 970.5
штиль 0 20 км местами туман поземный 8/6 600 м
[Cb cap Ac lent]
+16.1 +15.7 97 +16 +16 1000.0 970.9
ЮЗ 1 20 км 8/3 600 м
[Cb cap Ac lent Ci sp]
+20.1 +19.2 95 +25 +26 комфорт 1000.1 971.5 +16.0
ЮЗ 3 20 км 8/3 600 м
[Cb cap Ac lent Ci fib]
+25.3 +17.8 63 +30 +34 душно 1000.0 971.9
Ю 3 20 км {ливн. дождь} 8/6 600 м
[Cb cap Ac trans Ci fib]
+27.5 +17.9 56 +32 +36 очень душно 999.2 971.3
Ю 1 20 км 8/6 600 м
[Cb cap Ci sp]
+28.8 +15.5 44 +32 +35 душно 998.7 970.9
З 1 20 км 4/3 600 м
[Cb cap Ci fib]
+28.1 +15.8 47 +31 +32 душно 998.7 970.8 +29.7 0.0
штиль 0 20 км 8/6 600 м
[Cb cap Ac lent]
+18.7 +17.6 93 +20 +20 1000.3 971.5
штиль 0 н/о 6/4 600 м
[Cb cap Ac lent]
+16.0 +15.4 96 +16 +16 1000.9 971.8
штиль 0 20 км местами туман поземный 4/4 600 м
[Cb cap]
+13.8 +13.3 97 +13 +13 1001.3 972.0
штиль 0 20 км 8/8 600 м
[Cb cap Ac trans]
+17.2 +16.7 97 +17 +18 1002.2 973.2 +13.1
Ю 1 н/о н/о +24.7 +17.8 65 +29 +29 душно 1001.8 973.5
ЮЗ 3 20 км 9/6 600 м
[Cb cap Ac lent Ci sp]
+28.0 +17.5 53 +32 +35 душно 1000.5 972.6
З 2 20 км 8/8 600 м
[Cb cap]
+29.1 +16.2 46 +32 +34 душно 999.5 971.7
штиль 0 20 км 8/4 600 м
[Cb cap Ac lent Ci sp]
+28.2 +15.6 46 +31 +32 душно 999.1 971.3 +29.5
штиль 0 20 км 4/4 600 м
[Cb cap]
+19.2 +17.9 92 +21 +21 комфорт 1001.1 972.4
штиль 0 н/о 3/3 1000 м
[Sc]
+16.6 +16.0 96 +16 +16 1001.4 972.4
штиль 0 20 км 8/6 600 м
[Cb cap Ac trans]
+15.1 +14.6 97 +15 +15 1001.2 972.0
В 1 20 км 9/4 600 м
[Cb cap Ac trans Ci fib]
+19.9 +17.6 87 +24 +25 комфорт 1000.4 971.8 +14.4
СВ 3 20 км 8/6 600 м
[Cb cap Ac lent Ci sp]
+25.2 +17.6 63 +29 +32 душно 999.7 971.5
СЗ 2 {13} 500 м сильн. гроза, ливневой дождь 10/10 600 м
[Cb cap]
+18.1 +17.6 97 +19 +19 1001.4 972.5
ЮЗ 2 20 км {гроза, ливн. дождь} 9/9 600 м
[Cb cap]
+19.6 +19.2 98 +23 +24 комфорт 1001.5 972.9
штиль 0 4000 м слаб. ливневой дождь {гроза} 10/10 600 м
[Cb cap]
+19.7 +19.1 96 +22 +22 комфорт 1002.6 973.9 +26.1 26
штиль 0 2000 м слаб. дождь {ливн. дождь} 10/10 600 м
[Ns]
+18.7 +18.2 97 +20 +20 1003.1 974.2
штиль 0 н/о дымка {ливн. дождь, дождь} 10/10 600 м
[Ns]
+17.1 +16.7 97 +17 +17 1002.9 973.9
З 2 2000 м слаб. дождь 10/10 600 м
[Ns]
+17.7 +17.3 98 +18 +18 1002.2 973.3
З 1 4000 м слаб. дождь 10/10 600 м
[Ns]
+18.4 +17.9 97 +20 +20 1002.1 973.3 +16.9 2
З 3 4000 м слаб. дождь 10/0
[As op]
+17.9 +17.5 98 +18 +18 1002.6 973.7
З 3 4000 м слаб. дождь 10/0
[As op]
+18.5 +17.9 96 +20 +20 1002.8 973.9
З 3 20 км {дождь} 9/8 600 м
[Cb cap Ac lent Ci sp]
+21.1 +18.9 87 +25 +26 комфорт 1002.8 974.2
З 2 20 км {дождь} 9/9 600 м
[Cb cap]
+19.6 +17.8 89 +23 +23 комфорт 1003.4 974.7 +21.3 19
ЮЗ 1 20 км 9/8 600 м
[Cb cap Ac lent]
+18.8 +17.5 92 +21 +21 комфорт 1003.8 974.9
Местоположение метеостанции Ирбейское (Красноярский край, Россия): широта 55.63 долгота 95.47 высота над уровнем моря 252 м.
В архиве по умолчанию представлена погода в Ирбейском за последнюю неделю. Архивные данные за месяц целиком и за предыдущие месяцы, начиная с января 2011 года, Вы можете получить, выбрав интересующий диапазон дат из раскрывающегося списка и нажав кнопку "Найти!".
*Определитесь, кто Вы:
Внимание! Время в таблицах - всемирное. Для получения местного времени необходимо прибавить поправку, которая равна 7 ч.
Некоторые строки с данными для отдельных станций могут быть выделены курсивом. Это означает, что фактические данные отсутствуют по различным причинам, а приведенные значения являются расчетными модельными данными для данного пункта наблюдений.
Смотрите также архив погоды в соседних городах и на ближайших метеорологических станциях:
Партнеры нашего сайта:      
Пояснения к столбцам:
  • Ветер - указаны скорость ветра в м/с - средняя за 10 мин, порывы в срок и между сроками (в фигурных скобках) и направление, откуда дует ветер: С - северный,
  • СВ - северо-восточный, В - восточный, ЮВ - юго-восточный, Ю - южный, ЮЗ - юго-западный, З - западный, СЗ - северо-западный.
  • Видимость - горизонтальная дальность видимости в метрах или километрах. При видимости от 1 до 10 км при отсутствии осадков обычно наблюдается дымка, при ухудшении видимости до 1 км и менее - туман. В сухую погоду видимость может ухудшаться дымом, пылью или мглою.
  • Явления - указаны атмосферные явления, наблюдавшиеся в срок или в последний час перед сроком; фигурными скобками обозначены явления, наблюдавшиеся между сроками (за 1-3 часа до срока); квадратными скобками обозначены град или гололедные отложения с указанием их диаметра в мм.
  • Облачность - указаны через наклонную черту общая и нижняя облачность в баллах и высота нижней границы облаков в метрах; квадратными скобками обозначены формы облаков: Ci - перистые, Cs - перисто-слоистые, Cc - перисто-кучевые, Ac - высококучевые, As - высокослоистые, Sc - слоисто-кучевые, Ns - слоисто-дождевые, Cu - кучевые, Cb - кучево-дождевые. Подробнее классификацию облаков см. в Атласе облаков (PDF).
  • T - Температура воздуха - температура, измеренная на высоте 2 м над землей.
  • Td - Температура точки росы - температура, при понижении до которой содержащийся в воздухе водяной пар достигнет насыщения.
  • f - Относительная влажность воздуха - влажноcть воздуха, измеренная на высоте 2 м над землей.
  • Te - Эффективная температура - температура, которую ощущает одетый по сезону человек в тени. Характеристика душности погоды. При расчете учитывается влияние влажности воздуха и скорости ветра на теплоощущения человека.
  • Tes - Эффективная температура на солнце - температура, которую ощущает человек, с поправкой на солнечный нагрев. Характеристика знойности погоды. Зависит от высоты солнца над горизонтом, облачности и скорости ветра. Ночью, в пасмурную погоду, а также при ветре 12 м/с и более поправка равна нулю.
  • P - Атмосферное давление - приведенное к уровню моря атмосферное давление.
  • Po - Атмосферное давление - измеренное на уровне метеостанции атмосферное давление.
  • Tmin - Минимальная температура - минимум температуры воздуха на высоте 2 м над землей.
  • Tmax - Максимальная температура - максимум температуры воздуха на высоте 2 м над землей.
  • R - Количество осадков - Количество выпавших осадков за период времени, мм. При наведении курсора мыши на число - период времени, за который выпало указанное количество осадков.
  • R24 - Количество осадков - Количество выпавших осадков за 24 часа, мм.
  • S - Снежный покров - Высота снежного покрова, см. При наведении курсора мыши на число - состояние снежного покрова и степень покрытия местности в баллах.